Погода в Тихвине

Хотите узнать прогноз погоды в Тихвине? Тогда Вам сюда: Погода в Тихвине

Поиск расширенной информации на нашем сайте:

Полезная информация:

Новости сайта



14.11.2019
Обновлён Долгосрочный прогноз погоды по России и другим странам хСССР на ноябрь-декабрь 2019 года.
Опубликованы прогностические карты: Предварительный прогноз на декабрь 2019 года, Предварительный прогноз на январь 2020 года, Предварительная схема синоптических процессов на декабрь 2019 г..

11.11.2019
Обновлены Долгосрочный прогноз погоды по России и другим странам хСССР на ноябрь-декабрь 2019 года и Предварительный прогноз на зиму 2019/2020 годов

04.11.2019
Опубликован Долгосрочный прогноз погоды по России и другим странам хСССР на ноябрь 2019 года
Сравнение прогнозируемой аномалии приземной температуры воздуха на ноябрь 2019 года по разным моделям
Предварительный прогноз на зиму 2019/2020 года




Погода в Тихвине - сегодня

Время (UTC), дата Ветер
(°,м/с) 
Видим.   Явления Облачность Т
(°С)
Тd
(°С)
f(%) Тe
(°С)
Pmin
(гПа)
dP
(гПа)
Po
(мм)
O2
(г/м3)
Тmin Tmax R s Состояние
почвы
21 17.11.19 210 (ЮЗ) 10 км  {морось}  10/10 360 м 
[St]
+7 +6.6 97 +8  1024.3  0.2  763  299           
00 18.11.19 230 (ЮЗ) 10 км  {морось}  10/10 300 м 
[St]
+6.4 +6 97 +7  1024.7  0.4  763  299           
03 18.11.19 270 (З) 10 км    10/10 300 м 
[St]
+6.8 +6.1 95 +8  1025.1  0.4  763  299  +6.1    0.1     
06 18.11.19 тихо ()   1500 м  дымка  9/9 660 м 
[Sc]
+5.8 +5.3 97 +6  1026.3  1.1  764  301  +5.5    0.0     
09 18.11.19 тихо ()   6000 м  дымка{туман}  1/0 верхняя 
[Ci fib]
+6 +5.3 95 +6  1027.6  1.2  765  301           
12 18.11.19 тихо ()   18000 м  {туман}  5/0 верхняя 
[Ci fib]
+6.2 +5.5 95 +6  1028  0.4  765  301           
15 18.11.19 тихо ()   0200 м  туман  ясно 
+1.6 +1.3 98 +2  1028.8  0.7  766  307           
18 18.11.19 тихо ()   2000 м  дымка{туман} [диам. гололёда 0 мм]  ясно 
-0.8 -1.1 98 -1  1029.1  0.3  766  310    +8.4       
21 18.11.19 080 (В) 2000 м  дымка  10/10 210 м 
[St]
+1.6 +1.3 98 +1  1030.3  1.2  767  307           
00 19.11.19 090 (В) 1000 м  слаб. морось  10/10 180 м 
[St]
+2 +1.7 98 +1  1030.3  0.1  767  307           
03 19.11.19 090 (В) 10 км  {морось}  9/9 800 м 
[Sc]
+3 +2.5 97 +2  1030  -0.3  767  305  -1    0.1     
06 19.11.19 090 (В) 20000 м  {морось}  10/10 800 м 
[Sc]
+3.8 +2.8 93 +3  1029.8  -0.2  767  304  -1    0.1     
09 19.11.19 100 (В) 20000 м    10/10 720 м 
[Sc]
+6 +2.3 77 +6  1030.1  0.3  767  302           
12 19.11.19 130 (ЮВ) 25000 м    10/10 660 м 
[Sc]
+6.1 +2.7 79 +6  1030.4  0.3  767  302           
15 19.11.19 110 (В) 20000 м    10/10 600 м 
[Sc]
+5.8 +2.9 82 +6  1030.8  0.4  767  302           
18 19.11.19 110 (В) 20000 м    10/10 600 м 
[Sc]
+5.6 +3.2 85 +5  1031.6  0.8  768  303    +6.7       
21 19.11.19 120 (ЮВ) 20000 м    10/10 600 м 
[Sc]
+5.6 +3.5 86 +5  1032.4  0.8  769  303           
00 20.11.19 120 (ЮВ) 4000 м  слаб. морось  10/10 300 м 
[St]
+5.2 +4.5 95 +5  1033.3  0.8  769  303           
03 20.11.19 170 (Ю) 10 км  в посл. час морось  10/10 420 м 
[St]
+5.3 +3.9 91 +4  1034.7  1.4  770  304  +5.2    0.1     
06 20.11.19 150 (ЮВ) 6000 м  слаб. морось  10/10 360 м 
[St]
+3.9 +3.7 99 +5  1035.9  1.2  771  306  +3.9    0.1     
09 20.11.19 160 (Ю) 9000 м  слаб. морось  10/10 480 м 
[St]
+4.8 +3.8 93 +4  1037.3  1.4  772  305           
12 20.11.19 160 (Ю) 20000 м  {морось}  10/10 600 м 
[Sc]
+5.4 +3.5 88 +6  1038.1  0.8  773  305           
15 20.11.19 160 (Ю) 10 км    10/10 450 м 
[St]
+5 +4.1 94 +5  1038.9  0.8  773  305      0.0     
18 20.11.19 160 (Ю) 20000 м    10/10 660 м 
[Sc]
+4.9 +2.7 86 +5  1039.7  0.8  774  306    +5.4  0.0     
21 20.11.19 160 (Ю) 20000 м    10/10 600 м 
[Sc]
+4.1 +1.8 85 +4  1040.2  0.5  774  307           
Время (UTC), дата Ветер
(°,м/с) 
Видим.   Явления Облачность Т
(°С)
Тd
(°С)
f(%) Тe
(°С)
Pmin
(гПа)
dP
(гПа)
Po
(мм)
O2
(г/м3)
Тmin Tmax R s Состояние
почвы

Для получения пояснительной информации подведите курсор к названию столбца.

ПОГОДА в Тихвине - архив

Всё, что Вы хотите узнать о погоде в Тихвине - удобно и подробно!

Выберите нужную дату (начиная с 1 января 2019* года) и нажмите кнопку "Найти".
Будут отображены архивные сводки погоды по пункту Тихвин, начиная с указанной даты.


Отображать данные в формате CSV (для использования в таблицах Excel)


Внимание! Наш архив погоды предназначен исключительно для личного некоммерческого использования в познавательных целях. Если Вам необходимы официальные справки о состоянии погоды (для производственных, юридических, коммерческих и т.п. целей), обращайтесь в органы Росгидромета.

*Примечание: данная дата относится к архиву по метеостанциям СССР (Россия, СНГ, Балтия).
Архив по метеостанциям Зарубежной Европы и Азии (кроме Китая) хранится 10 дней, по другим регионам земного шара (Китай, Африка, Америка, Австралия, Океания) - 1 день.

Тихвин - район местоположения метеостанции


Название, широта, долгота, высота метеостанции:
Тихвин 59.6°ш. 33.6°д. 61 м над ур. моря [Российская Федерация]

Дополнительная информация

В oтличие oт бoльшинства пoгoдных сайтoв мы публикуем пoдрoбную метеoинфoрмацию в детальнoм прoфессиoнальнoм фoрмате.

Характеристики температуры и влажнoсти вoздуха измеряются на высoте 2 м в тени вдали oт зданий и деревьев.
Скoрoсть ветра измеряется на высoте 10 м (на урoвне рoста челoвека скoрoсть ветра ниже в 1.5-2 раза). Если метеoстанция нахoдится в гoрoде или в лесу, тo скoрoсть ветра занижена на 2-4 м/с пo сравнению с oткрытым местoм. Скoрoсть ветра над акватoриями крупных рек и oзёр, а также на вершинах хoлмoв на 2-5 м/с выше, чем в oбычных услoвиях.
Атмoсфернoе давление в разных тoчках местнoсти мoжет значительнo oтличаться oт давления на метеoстанции, в зависимoсти oт услoвий рельефа (при пoдъёме на 10 м давление пoнижается примернo на 1 мм рт.ст.).